Regional Weather Roundup
Issued by NWS Goodland, KS

Home | Current Version | Previous Version | Graphics & Text | Print | Product List | Glossary On
Versions: 1 2 3 4 5 6 7 8 9 10 11 12 13 14 15 16 17 18 19 20 21 22 23 24 25 26 27 28 29 30 31 32 33 34 35 36 37 38 39 40 41 42 43 44 45 46 47 48 49 50
000
ASUS43 KGLD 261008
RWRGLD

GOODLAND FORECAST AREA HOURLY WEATHER ROUNDUP
NATIONAL WEATHER SERVICE GOODLAND KS
400 AM MDT THU MAR 26 2015

...OFFICIAL OBSERVATIONS...

CITY           SKY/WX    TMP DP  RH WIND       PRES   REMARKS
GOODLAND KS    PTCLDY    27  24  89 W7        30.20F
HILL CITY KS   CLEAR     25  21  85 W5        30.25F
IMPERIAL NEB     N/A     24  19  81 CALM      30.20F
MCCOOK NEB     CLEAR     20  16  84 SW7       30.24F
AKRON CO       PTCLDY    30  28  92 SW10      30.18F
BURLINGTON CO  PTCLDY    29  26  89 W8        30.20F
LIMON CO       MOCLDY    24  22  91 N6        30.20F
$$

...UNOFFICIAL OBSERVATIONS...

CITY           SKY/WX    TMP DP  RH WIND       PRES   REMARKS
COLBY KS       CLEAR     21  21 100 W3        30.24S
GOVE KS          N/A     25  32 100 MISG        N/A
NORTON KS      CLEAR     21  16  79 SW6       30.23S
SHARON SPRINGS   N/A     26  24  91 W7          N/A
YUMA CO          N/A     29  26  87 W8          N/A
$$


USA.gov is the U.S. government's official web portal to all federal, state and local government web resources and services.